Regional Weather Roundup
Issued by NWS

Home | Current Version | Previous Version | Text Only | Print | Product List | Glossary Off
Versions: 1 2 3 4 5 6 7 8 9 10 11 12 13 14 15 16 17 18 19 20 21 22 23 24 25 26 27 28 29 30 31 32 33 34 35 36 37 38 39 40 41 42 43 44 45 46 47 48 49 50

000
ASUS43 KTOP 062359
RWRKS

WEATHER ROUNDUP FOR KANSAS
NATIONAL WEATHER SERVICE GOODLAND KS
600 PM CST FRI MAR 06 2015

NOTE:  "FAIR" INDICATES FEW OR NO CLOUDS BELOW 12,000 FEET WITH NO
SIGNIFICANT WEATHER AND/OR OBSTRUCTIONS TO VISIBILITY.

KSZ001>006-013>018-027>032-041>047-070100-
NORTHWEST KANSAS

CITY           SKY/WX    TMP DP  RH WIND       PRES   REMARKS
GOODLAND       CLEAR     55  19  24 W12       30.21S
6HR MIN TEMP:  55; 6HR MAX TEMP:  61;

HAYS           CLEAR     63  14  15 W13       30.19S
HILL CITY      CLEAR     63  14  15 W8        30.17F
6HR MIN TEMP:  59; 6HR MAX TEMP:  66;

RUSSELL        CLEAR     61  16  17 NW9       30.16F
6HR MIN TEMP:  57; 6HR MAX TEMP:  66;

$$

KSZ061>065-074>080-084>089-070100-
SOUTHWEST KANSAS

CITY           SKY/WX    TMP DP  RH WIND       PRES   REMARKS
DODGE CITY     CLEAR     59  17  19 W5        30.23F
6HR MIN TEMP:  55; 6HR MAX TEMP:  63;

ELKHART          N/A     59  23  25 S6          N/A
GARDEN CITY    CLEAR     58  18  21 SW6       30.23S
6HR MIN TEMP:  55; 6HR MAX TEMP:  61;

GREAT BEND     CLEAR     63  16  16 W9        30.20S
LIBERAL        CLEAR     59  25  27 S5        30.26S
$$

KSZ066>073-081>083-090>101-070100-
SOUTHEAST KANSAS

CITY           SKY/WX    TMP DP  RH WIND       PRES   REMARKS
CHANUTE        CLEAR     54  27  35 SW15      30.28S
6HR MIN TEMP:  48; 6HR MAX TEMP:  59;

COFFEYVILLE    CLEAR     54  27  35 S14       30.30S
6HR MIN TEMP:  50; 6HR MAX TEMP:  59;

HUTCHINSON     CLEAR     60  26  27 SW10      30.22F
6HR MIN TEMP:  56; 6HR MAX TEMP:  64;

MEDICINE LODGE   N/A     62  23  22 SW8       30.23F
NEWTON         CLEAR     55  28  35 SW14      30.25S
PARSONS        CLEAR     55  27  34 SW10      30.30S
6HR MIN TEMP:  49; 6HR MAX TEMP:  60;

WICHITA INTL   CLEAR     57  27  31 S10       30.25S
6HR MIN TEMP:  50; 6HR MAX TEMP:  61;

WICHITA JABRA  CLEAR     56  26  31 S13       30.25F
6HR MIN TEMP:  49; 6HR MAX TEMP:  60;

WINFIELD       CLEAR     54  28  36 SW12      30.30R
6HR MIN TEMP:  50; 6HR MAX TEMP:  60;

$$

KSZ007>012-019>026-033>040-048>060-102>105-070100-
NORTHEAST KANSAS

CITY           SKY/WX    TMP DP  RH WIND       PRES   REMARKS
CONCORDIA      CLEAR     59  18  20 W8        30.16S
6HR MIN TEMP:  56; 6HR MAX TEMP:  65;

EMPORIA        CLEAR     53  28  38 SW14      30.22F
6HR MIN TEMP:  52; 6HR MAX TEMP:  60;

LAWRENCE       CLEAR     57  21  24 SW10      30.21S
6HR MIN TEMP:  51; 6HR MAX TEMP:  61;

MANHATTAN      CLEAR     62  17  17 SW8       30.17F
6HR MIN TEMP:  52; 6HR MAX TEMP:  65;

OLATHE IND     CLEAR     53  24  32 SW9       30.22F
6HR MIN TEMP:  49; 6HR MAX TEMP:  59;

OLATHE EXE     CLEAR     55  24  30 SW7       30.21F
6HR MIN TEMP:  48; 6HR MAX TEMP:  58;

SALINA         CLEAR     63  17  17 SW7       30.18F
6HR MIN TEMP:  57; 6HR MAX TEMP:  68;

TOPEKA BILLARD CLEAR     59  21  23 SW7       30.20S
6HR MIN TEMP:  53; 6HR MAX TEMP:  62;

TOPEKA FORBES  CLEAR     56  23  27 SW9       30.20F
6HR MIN TEMP:  54; 6HR MAX TEMP:  63;

$$



USA.gov is the U.S. government's official web portal to all federal, state and local government web resources and services.